Regional Weather Roundup
Issued by NWS Newport/Morehead, NC

Current Version | Previous Version | Graphics & Text | Print | Product List | Glossary On
Versions: 1 2 3 4 5 6 7 8 9 10 11 12 13 14 15 16 17 18 19 20 21 22 23 24 25 26 27 28 29 30 31 32 33 34 35 36 37 38 39 40 41 42 43 44 45 46 47 48 49 50
000 ASUS42 KMHX 281910 RWRMHX WEATHER ROUNDUP FOR EASTERN NORTH CAROLINA NATIONAL WEATHER SERVICE NEWPORT/MOREHEAD CITY NC 200 PM EST FRI NOV 28 2014 NOTE: "FAIR" INDICATES FEW OR NO CLOUDS BELOW 12,000 FEET WITH NO SIGNIFICANT WEATHER AND/OR OBSTRUCTIONS TO VISIBILITY NCZ015>017-031-032-045>047-102-103-282000- NORTH COAST CITY SKY/WX TMP DP RH WIND PRES REMARKS EDENTON MOSUNNY 44 23 44 NW8 30.28S ELIZABETH CITY MOSUNNY 47 22 37 N6 30.27F KITTY HAWK CLEAR 43 21 41 N8 30.25F MANTEO SUNNY 42 22 44 N9 30.27F $$ NCZ045>047-081-094-103-104-282000- CENTRAL COAST CITY SKY/WX TMP DP RH WIND PRES REMARKS FRISCO SUNNY 44 27 51 N10 30.25F SWANQUARTER N/A 45 N/A N/A NW7G16 30.24S $$ NCZ095-097-098-100-101-282000- SOUTHERN COAST CITY SKY/WX TMP DP RH WIND PRES REMARKS BEAUFORT SUNNY 46 25 43 NW7 30.28F CEDAR ISLAND N/A 43 N/A N/A NW16 30.30F JACKSONVILLE SUNNY 46 20 35 NW10 30.28F PINEY ISLAND CLEAR 46 24 42 N13 30.28F WILMINGTON SUNNY 47 21 35 NW7 30.29F $$ NCZ011>013-027>030-043-044-078>080-089-090>093-098-282000- COASTAL PLAIN CITY SKY/WX TMP DP RH WIND PRES REMARKS AHOSKIE SUNNY 42 21 44 W3 30.28F CLINTON SUNNY 46 22 39 N3 30.30F ELIZABETHTOWN SUNNY 44 20 37 CALM 30.30F GOLDSBORO SUNNY 45 20 37 VRB7 30.27F GREENVILLE SUNNY 43 23 45 NW5 30.29S HAVELOCK SUNNY 46 22 38 NW7 30.29F KENANSVILLE SUNNY 44 19 37 NW8 30.30F KINSTON SUNNY 45 21 39 W5 30.30F NEW BERN SUNNY 46 22 38 N6 30.29F RICHLANDS SUNNY 45 21 39 NW3 30.30F ROCKY MOUNT SUNNY 45 21 38 NW10 30.29F WASHINGTON SUNNY 44 21 40 NW5 30.28F WHITEVILLE SUNNY 45 19 35 NW3 30.30F $$ AMZ130-135-150-152-154-156-158-170-250-252-270-ANZ085-086-088-633-658-670-282000- MARINE OBSERVATIONS STATION/POSITION TIME TEMP WIND PRES WAVE SWELL AIR SEA DIR/SP/G HT/PER HT/PER (UTC) (F) (DEG/KT/KT) (MB) (FT/S) (FT/S) CHESAPEAKE LIGHT 1800 40 330/ 19/ 21 1025.0 64 E VA BEACH 1900 43 64 330/ 16/ 19 1023.1 7/ 7 3/11 DUCK 1900 40 52 350/ 14/ 17 1023.8 2 E DUCK 1900 54 N/A 5/ 6 2/11 10 NE DUCK 1900 56 N/A 6/ 6 2/11 OREGON INLET 1900 42 50 310/ 13/ 16 1024.6 13E OREGON INLT 1900 59 N/A 6/ 7 2/11 HATTERAS CG 1900 53 350/ 13/ 18 1024.8 DIAMOND BUOY 1900 45 330/ 19/ 23 1023.9 5/ 8 2/ 8 17 S OCRACOKE NOT AVBL CAPE LOOKOUT 1800 43 360/ 12/ 16 1025.4 BEAUFORT LAB 1900 43 54 350/ 8/ 11 1024.4 30 SE NEW RIVER 1900 44 67 350/ 12/ 16 1025.8 4/ 5 2/ 5 5 SE WRIGHTSVLE 1800 45 58 30/ 10/ 12 1026.4 225 S CAPE HAT 1839 58 72 330/ 17/ 25 1021.5 10/ 8 41 SE CHARLESTON 1900 47 72 20/ 12/ 17 1025.9 5/ 6 3/ 6 $$

USA.gov is the U.S. government's official web portal to all federal, state and local government web resources and services.